Time,TemperatureF,DewpointF,PressureIn,WindDirection,WindDirectionDegrees,WindSpeedMPH,WindSpeedGustMPH,Humidity,HourlyPrecipIn,Conditions,Clouds,dailyrainin,SoftwareType,DateUTC
2013-06-22 00:06:00,56.2,53.0,30.20,West,269,0.0,0.0,88,0.00,,,0.00,weatherlink.com 1.10,2013-06-22 04:06:00,
2013-06-22 00:21:00,55.9,52.0,30.20,West,269,0.0,0.0,87,0.00,,,0.00,weatherlink.com 1.10,2013-06-22 04:21:00,
2013-06-22 00:36:00,55.6,53.0,30.20,West,269,0.0,0.0,89,0.00,,,0.00,weatherlink.com 1.10,2013-06-22 04:36:00,
2013-06-22 00:51:00,55.7,53.0,30.20,West,269,0.0,0.0,89,0.00,,,0.00,weatherlink.com 1.10,2013-06-22 04:51:00,
2013-06-22 01:06:00,56.3,51.0,30.20,West,263,0.0,4.0,83,0.00,,,0.00,weatherlink.com 1.10,2013-06-22 05:06:00,
2013-06-22 01:21:00,56.0,52.0,30.20,West,277,0.0,2.0,85,0.00,,,0.00,weatherlink.com 1.10,2013-06-22 05:21:00,
2013-06-22 01:36:00,58.0,51.0,30.20,West,279,1.0,6.0,78,0.00,,,0.00,weatherlink.com 1.10,2013-06-22 05:36:00,
2013-06-22 01:51:00,56.8,52.0,30.20,West,279,2.0,2.0,83,0.00,,,0.00,weatherlink.com 1.10,2013-06-22 05:51:00,
2013-06-22 02:06:00,57.1,53.0,30.19,West,272,0.0,4.0,85,0.00,,,0.00,weatherlink.com 1.10,2013-06-22 06:06:00,
2013-06-22 02:21:00,56.4,53.0,30.19,West,272,0.0,1.0,87,0.00,,,0.00,weatherlink.com 1.10,2013-06-22 06:21:00,
2013-06-22 02:36:00,56.3,53.0,30.19,West,272,0.0,0.0,89,0.00,,,0.00,weatherlink.com 1.10,2013-06-22 06:36:00,
2013-06-22 02:51:00,56.2,53.0,30.18,West,272,0.0,0.0,89,0.00,,,0.00,weatherlink.com 1.10,2013-06-22 06:51:00,
2013-06-22 03:07:00,56.0,53.0,30.18,West,272,0.0,0.0,89,0.00,,,0.00,weatherlink.com 1.10,2013-06-22 07:07:00,
2013-06-22 03:22:00,56.5,53.0,30.17,West,272,0.0,0.0,89,0.00,,,0.00,weatherlink.com 1.10,2013-06-22 07:22:00,
2013-06-22 03:37:00,55.9,53.0,30.17,West,272,0.0,0.0,91,0.00,,,0.00,weatherlink.com 1.10,2013-06-22 07:37:00,
2013-06-22 03:52:00,55.9,53.0,30.17,West,272,0.0,0.0,90,0.00,,,0.00,weatherlink.com 1.10,2013-06-22 07:52:00,
2013-06-22 04:07:00,56.1,54.0,30.17,West,272,0.0,0.0,91,0.00,,,0.00,weatherlink.com 1.10,2013-06-22 08:07:00,
2013-06-22 04:22:00,56.2,53.0,30.17,West,272,0.0,0.0,88,0.00,,,0.00,weatherlink.com 1.10,2013-06-22 08:22:00,
2013-06-22 04:37:00,55.7,53.0,30.18,West,272,0.0,0.0,91,0.00,,,0.00,weatherlink.com 1.10,2013-06-22 08:37:00,
2013-06-22 04:52:00,57.0,52.0,30.17,West,272,0.0,0.0,83,0.00,,,0.00,weatherlink.com 1.10,2013-06-22 08:52:00,
2013-06-22 05:07:00,56.4,52.0,30.17,West,272,0.0,0.0,85,0.00,,,0.00,weatherlink.com 1.10,2013-06-22 09:07:00,
2013-06-22 05:22:00,56.8,52.0,30.17,West,272,0.0,0.0,83,0.00,,,0.00,weatherlink.com 1.10,2013-06-22 09:22:00,
2013-06-22 05:37:00,57.4,52.0,30.17,West,272,0.0,0.0,81,0.00,,,0.00,weatherlink.com 1.10,2013-06-22 09:37:00,
2013-06-22 05:52:00,58.9,52.0,30.17,West,272,0.0,0.0,79,0.00,,,0.00,weatherlink.com 1.10,2013-06-22 09:52:00,
2013-06-22 06:07:00,58.9,53.0,30.17,West,272,0.0,0.0,81,0.00,,,0.00,weatherlink.com 1.10,2013-06-22 10:07:00,
2013-06-22 06:22:00,60.5,54.0,30.17,West,272,0.0,0.0,79,0.00,,,0.00,weatherlink.com 1.10,2013-06-22 10:22:00,
2013-06-22 06:37:00,61.6,53.0,30.17,West,272,0.0,0.0,74,0.00,,,0.00,weatherlink.com 1.10,2013-06-22 10:37:00,
2013-06-22 06:52:00,61.2,53.0,30.17,West,272,0.0,0.0,75,0.00,,,0.00,weatherlink.com 1.10,2013-06-22 10:52:00,
2013-06-22 07:07:00,60.7,53.0,30.17,NW,315,0.0,0.0,77,0.00,,,0.00,weatherlink.com 1.10,2013-06-22 11:07:00,
2013-06-22 07:22:00,59.5,54.0,30.17,NW,315,0.0,0.0,82,0.00,,,0.00,weatherlink.com 1.10,2013-06-22 11:22:00,
2013-06-22 07:37:00,58.9,54.0,30.16,NW,312,0.0,0.0,85,0.00,,,0.00,weatherlink.com 1.10,2013-06-22 11:37:00,
2013-06-22 07:52:00,59.1,56.0,30.16,NW,312,0.0,0.0,89,0.00,,,0.00,weatherlink.com 1.10,2013-06-22 11:52:00,
2013-06-22 08:07:00,60.0,57.0,30.16,NW,312,0.0,0.0,88,0.00,,,0.00,weatherlink.com 1.10,2013-06-22 12:07:00,
2013-06-22 08:22:00,61.2,56.0,30.16,NW,312,0.0,0.0,84,0.00,,,0.00,weatherlink.com 1.10,2013-06-22 12:22:00,
2013-06-22 08:37:00,61.1,56.0,30.15,NW,312,0.0,0.0,84,0.00,,,0.00,weatherlink.com 1.10,2013-06-22 12:37:00,
2013-06-22 08:52:00,62.4,56.0,30.15,NW,311,0.0,1.0,79,0.00,,,0.00,weatherlink.com 1.10,2013-06-22 12:52:00,
2013-06-22 09:07:00,63.1,57.0,30.15,NW,311,0.0,0.0,79,0.00,,,0.00,weatherlink.com 1.10,2013-06-22 13:07:00,
2013-06-22 09:22:00,63.1,57.0,30.16,NW,311,0.0,0.0,81,0.00,,,0.00,weatherlink.com 1.10,2013-06-22 13:22:00,
2013-06-22 09:37:00,63.4,58.0,30.16,NW,315,0.0,0.0,82,0.00,,,0.00,weatherlink.com 1.10,2013-06-22 13:37:00,
2013-06-22 09:52:00,63.9,59.0,30.16,NE,36,0.0,2.0,83,0.00,,,0.00,weatherlink.com 1.10,2013-06-22 13:52:00,
2013-06-22 10:07:00,64.5,57.0,30.16,NE,36,0.0,0.0,77,0.00,,,0.00,weatherlink.com 1.10,2013-06-22 14:07:00,
2013-06-22 10:22:00,64.2,59.0,30.17,NNE,29,1.0,2.0,82,0.00,,,0.00,weatherlink.com 1.10,2013-06-22 14:22:00,
2013-06-22 10:37:00,63.7,59.0,30.17,NE,51,3.0,3.0,84,0.00,,,0.00,weatherlink.com 1.10,2013-06-22 14:37:00,
2013-06-22 10:52:00,63.9,59.0,30.17,NE,49,1.0,3.0,83,0.00,,,0.00,weatherlink.com 1.10,2013-06-22 14:52:00,
2013-06-22 11:07:00,63.1,58.0,30.18,ENE,69,0.0,5.0,83,0.00,,,0.00,weatherlink.com 1.10,2013-06-22 15:07:00,
2013-06-22 11:22:00,62.8,57.0,30.18,ENE,69,3.0,4.0,81,0.00,,,0.00,weatherlink.com 1.10,2013-06-22 15:22:00,
2013-06-22 11:37:00,62.6,57.0,30.18,ENE,65,0.0,4.0,82,0.00,,,0.00,weatherlink.com 1.10,2013-06-22 15:37:00,
2013-06-22 11:52:00,63.7,57.0,30.18,ENE,65,0.0,3.0,80,0.00,,,0.00,weatherlink.com 1.10,2013-06-22 15:52:00,
2013-06-22 12:07:00,63.8,57.0,30.17,ENE,65,1.0,2.0,79,0.00,,,0.00,weatherlink.com 1.10,2013-06-22 16:07:00,
2013-06-22 12:22:00,63.3,58.0,30.17,ENE,65,3.0,3.0,83,0.00,,,0.00,weatherlink.com 1.10,2013-06-22 16:22:00,
2013-06-22 12:37:00,63.0,59.0,30.16,ENE,65,1.0,3.0,85,0.00,,,0.00,weatherlink.com 1.10,2013-06-22 16:37:00,
2013-06-22 12:52:00,63.3,59.0,30.16,ENE,65,0.0,1.0,86,0.01,,,0.01,weatherlink.com 1.10,2013-06-22 16:52:00,
2013-06-22 13:07:00,63.2,59.0,30.16,ENE,65,0.0,0.0,85,0.01,,,0.01,weatherlink.com 1.10,2013-06-22 17:07:00,
2013-06-22 13:22:00,63.4,59.0,30.16,East,87,0.0,2.0,86,0.02,,,0.02,weatherlink.com 1.10,2013-06-22 17:22:00,
2013-06-22 13:37:00,63.9,59.0,30.15,SW,229,1.0,3.0,83,0.02,,,0.02,weatherlink.com 1.10,2013-06-22 17:37:00,
2013-06-22 13:52:00,64.2,60.0,30.15,South,173,1.0,3.0,85,0.02,,,0.03,weatherlink.com 1.10,2013-06-22 17:52:00,
2013-06-22 14:07:00,63.8,60.0,30.15,WNW,286,0.0,3.0,88,0.02,,,0.03,weatherlink.com 1.10,2013-06-22 18:07:00,
2013-06-22 14:22:00,63.8,60.0,30.14,WNW,286,0.0,3.0,88,0.01,,,0.03,weatherlink.com 1.10,2013-06-22 18:22:00,
2013-06-22 14:37:00,64.5,60.0,30.14,WNW,285,0.0,1.0,85,0.01,,,0.03,weatherlink.com 1.10,2013-06-22 18:37:00,
2013-06-22 14:52:00,65.4,60.0,30.13,SW,223,0.0,3.0,83,0.00,,,0.03,weatherlink.com 1.10,2013-06-22 18:52:00,
2013-06-22 15:07:00,65.7,60.0,30.13,SW,223,0.0,2.0,81,0.00,,,0.03,weatherlink.com 1.10,2013-06-22 19:07:00,
2013-06-22 15:22:00,66.2,60.0,30.12,SW,225,0.0,2.0,79,0.00,,,0.03,weatherlink.com 1.10,2013-06-22 19:22:00,
2013-06-22 15:37:00,65.4,59.0,30.13,SW,226,0.0,0.0,81,0.00,,,0.03,weatherlink.com 1.10,2013-06-22 19:37:00,
2013-06-22 15:52:00,65.7,59.0,30.13,SW,226,0.0,1.0,78,0.00,,,0.03,weatherlink.com 1.10,2013-06-22 19:52:00,
2013-06-22 16:07:00,66.2,59.0,30.12,SW,226,0.0,2.0,77,0.00,,,0.03,weatherlink.com 1.10,2013-06-22 20:07:00,
2013-06-22 16:22:00,66.5,60.0,30.12,SW,233,1.0,3.0,80,0.00,,,0.03,weatherlink.com 1.10,2013-06-22 20:22:00,
2013-06-22 16:37:00,66.3,60.0,30.12,SW,233,0.0,2.0,79,0.00,,,0.03,weatherlink.com 1.10,2013-06-22 20:37:00,
2013-06-22 16:52:00,65.8,60.0,30.12,SW,233,0.0,1.0,82,0.00,,,0.03,weatherlink.com 1.10,2013-06-22 20:52:00,
2013-06-22 17:07:00,65.5,61.0,30.12,SW,233,0.0,0.0,86,0.00,,,0.03,weatherlink.com 1.10,2013-06-22 21:07:00,
2013-06-22 17:22:00,64.4,61.0,30.12,SW,233,0.0,0.0,87,0.00,,,0.03,weatherlink.com 1.10,2013-06-22 21:22:00,
2013-06-22 17:37:00,63.7,61.0,30.12,SW,233,0.0,1.0,91,0.01,,,0.04,weatherlink.com 1.10,2013-06-22 21:37:00,
2013-06-22 17:53:00,63.2,61.0,30.13,SW,233,0.0,1.0,91,0.01,,,0.04,weatherlink.com 1.10,2013-06-22 21:53:00,
2013-06-22 18:08:00,63.3,61.0,30.11,SW,233,0.0,0.0,93,0.01,,,0.04,weatherlink.com 1.10,2013-06-22 22:08:00,
2013-06-22 18:23:00,63.1,61.0,30.12,SW,233,0.0,1.0,93,0.02,,,0.05,weatherlink.com 1.10,2013-06-22 22:23:00,
2013-06-22 18:38:00,63.0,61.0,30.12,SW,233,0.0,0.0,92,0.01,,,0.05,weatherlink.com 1.10,2013-06-22 22:38:00,
2013-06-22 18:53:00,62.5,60.0,30.12,WNW,286,0.0,7.0,91,0.02,,,0.06,weatherlink.com 1.10,2013-06-22 22:53:00,
2013-06-22 19:08:00,62.0,60.0,30.13,NE,41,0.0,4.0,93,0.02,,,0.06,weatherlink.com 1.10,2013-06-22 23:08:00,
2013-06-22 19:23:00,62.0,60.0,30.12,NNW,328,1.0,2.0,93,0.01,,,0.06,weatherlink.com 1.10,2013-06-22 23:23:00,
2013-06-22 19:38:00,61.9,60.0,30.11,NW,313,0.0,2.0,94,0.01,,,0.06,weatherlink.com 1.10,2013-06-22 23:38:00,
2013-06-22 19:53:00,61.9,60.0,30.10,WNW,284,1.0,2.0,94,0.00,,,0.06,weatherlink.com 1.10,2013-06-22 23:53:00,
2013-06-22 20:08:00,61.6,60.0,30.11,WNW,284,0.0,2.0,93,0.00,,,0.06,weatherlink.com 1.10,2013-06-23 00:08:00,
2013-06-22 20:23:00,61.3,60.0,30.11,WNW,290,0.0,4.0,94,0.00,,,0.06,weatherlink.com 1.10,2013-06-23 00:23:00,
2013-06-22 20:38:00,61.0,59.0,30.12,WNW,290,0.0,0.0,94,0.00,,,0.06,weatherlink.com 1.10,2013-06-23 00:38:00,
2013-06-22 20:53:00,60.6,59.0,30.12,WNW,290,0.0,0.0,94,0.00,,,0.06,weatherlink.com 1.10,2013-06-23 00:53:00,
2013-06-22 21:08:00,60.1,59.0,30.12,WNW,286,0.0,0.0,95,0.00,,,0.06,weatherlink.com 1.10,2013-06-23 01:08:00,
2013-06-22 21:23:00,60.0,58.0,30.12,WNW,286,0.0,0.0,94,0.00,,,0.06,weatherlink.com 1.10,2013-06-23 01:23:00,
2013-06-22 21:38:00,59.7,58.0,30.12,WNW,286,0.0,0.0,95,0.00,,,0.06,weatherlink.com 1.10,2013-06-23 01:38:00,
2013-06-22 21:53:00,60.1,58.0,30.11,West,265,5.0,7.0,94,0.00,,,0.06,weatherlink.com 1.10,2013-06-23 01:53:00,
2013-06-22 22:08:00,60.4,58.0,30.11,West,279,0.0,6.0,93,0.00,,,0.06,weatherlink.com 1.10,2013-06-23 02:08:00,
2013-06-22 22:23:00,59.9,59.0,30.11,West,277,1.0,3.0,95,0.00,,,0.06,weatherlink.com 1.10,2013-06-23 02:23:00,
2013-06-22 22:38:00,59.8,58.0,30.11,West,277,0.0,1.0,95,0.00,,,0.06,weatherlink.com 1.10,2013-06-23 02:38:00,
2013-06-22 22:53:00,59.9,59.0,30.10,West,271,0.0,4.0,95,0.00,,,0.06,weatherlink.com 1.10,2013-06-23 02:53:00,
2013-06-22 23:08:00,60.3,59.0,30.11,West,273,1.0,6.0,94,0.00,,,0.06,weatherlink.com 1.10,2013-06-23 03:08:00,
2013-06-22 23:23:00,61.2,59.0,30.11,West,259,2.0,8.0,91,0.00,,,0.06,weatherlink.com 1.10,2013-06-23 03:23:00,
2013-06-22 23:38:00,60.2,58.0,30.11,WSW,255,0.0,3.0,93,0.01,,,0.07,weatherlink.com 1.10,2013-06-23 03:38:00,
2013-06-22 23:53:00,59.9,58.0,30.10,SW,236,4.0,5.0,94,0.01,,,0.07,weatherlink.com 1.10,2013-06-23 03:53:00,